,,Stat5,,Stat1,,Stat2,,Stat3,,Stat4,,Wind1,,Wind1,
time,status,PA1M_AVG,status,PR1M_SUM,status,RH1M_AVG,status,SR1M_AVG,status,TA1M_AVG,status,W1dAve1m,status,W1sAve1m,
2001-05-29, 00:00:00,VALID,917.242,VALID,0,VALID,89.404,VALID,-0.0339617,VALID,19.1725,VALID,139,VALID,0.951891,
2001-05-29, 00:01:00,VALID,917.241,VALID,0,VALID,89.2501,VALID,-0.0509425,VALID,19.1886,VALID,132,VALID,0.888238,
2001-05-29, 00:02:00,VALID,917.226,VALID,0,VALID,89.2298,VALID,0,VALID,19.1884,VALID,145,VALID,0.814887,
2001-05-29, 00:03:00,VALID,917.214,VALID,0,VALID,89.6227,VALID,-0.0339617,VALID,19.2018,VALID,142,VALID,1.07644,
2001-05-29, 00:04:00,VALID,917.221,VALID,0,VALID,89.6608,VALID,0,VALID,19.1815,VALID,149,VALID,0.831826,
2001-05-29, 00:05:00,VALID,917.201,VALID,0,VALID,90.1046,VALID,-0.0169808,VALID,19.1882,VALID,145,VALID,0.915502,
2001-05-29, 00:06:00,VALID,917.212,VALID,0,VALID,90.3666,VALID,-0.0339617,VALID,19.1658,VALID,144,VALID,0.674342,
2001-05-29, 00:07:00,VALID,917.202,VALID,0,VALID,90.2966,VALID,-0.0339617,VALID,19.1464,VALID,135,VALID,1.01007,
2001-05-29, 00:08:00,VALID,917.184,VALID,0,VALID,90.35,VALID,-0.0849042,VALID,19.1206,VALID,135,VALID,0.852163,
2001-05-29, 00:09:00,VALID,917.176,VALID,0,VALID,90.1351,VALID,-0.0169808,VALID,19.1139,VALID,123,VALID,0.857525,
2001-05-29, 00:10:00,VALID,917.178,VALID,0,VALID,90.1123,VALID,-0.0339617,VALID,19.1176,VALID,109,VALID,0.570713,
2001-05-29, 00:11:00,VALID,917.183,VALID,0,VALID,89.8974,VALID,-0.0169808,VALID,19.1072,VALID,127,VALID,0.625,
2001-05-29, 00:12:00,VALID,917.169,VALID,0,VALID,89.7956,VALID,-0.0339617,VALID,19.1174,VALID,121,VALID,0.590545,
2001-05-29, 00:13:00,VALID,917.146,VALID,0,VALID,89.9419,VALID,0,VALID,19.1236,VALID,155,VALID,0.548314,
2001-05-29, 00:14:00,VALID,917.146,VALID,0,VALID,89.9482,VALID,-0.0169808,VALID,19.127,VALID,142,VALID,0.984976,
2001-05-29, 00:15:00,VALID,917.131,VALID,0,VALID,90.083,VALID,-0.0169808,VALID,19.1367,VALID,147,VALID,0.974712,
2001-05-29, 00:16:00,VALID,917.116,VALID,0,VALID,90.5281,VALID,-0.0169808,VALID,19.1333,VALID,154,VALID,0.905849,
2001-05-29, 00:17:00,VALID,917.103,VALID,0,VALID,90.8841,VALID,0,VALID,19.127,VALID,157,VALID,0.902549,
2001-05-29, 00:18:00,VALID,917.089,VALID,0,VALID,91.4691,VALID,0,VALID,19.1208,VALID,167,VALID,0.755809,
2001-05-29, 00:19:00,VALID,917.081,VALID,0,VALID,91.8849,VALID,-0.0339617,VALID,19.1211,VALID,169,VALID,0.705592,
2001-05-29, 00:20:01,VALID,917.079,VALID,0,VALID,92.41,VALID,0,VALID,19.0883,VALID,165,VALID,0.472556,
2001-05-29, 00:21:00,VALID,917.08,VALID,0,VALID,92.8259,VALID,-0.0169808,VALID,19.0657,VALID,162,VALID,0.57977,
2001-05-29, 00:22:01,VALID,917.064,VALID,0,VALID,93.2468,VALID,-0.0339617,VALID,19.0331,VALID,164,VALID,0.455729,
2001-05-29, 00:23:00,VALID,917.057,VALID,0,VALID,93.5914,VALID,0,VALID,19.0013,VALID,156,VALID,0.487048,
2001-05-29, 00:24:00,VALID,917.036,VALID,0,VALID,93.7007,VALID,-0.0339617,VALID,18.946,VALID,139,VALID,0.858974,
2001-05-29, 00:25:00,VALID,917.02,VALID,0,VALID,93.7389,VALID,-0.0339617,VALID,18.9042,VALID,126,VALID,0.801398,
2001-05-29, 00:26:01,VALID,917.003,VALID,0,VALID,93.5405,VALID,0,VALID,18.8655,VALID,139,VALID,1.11659,
2001-05-29, 00:27:00,VALID,916.977,VALID,0,VALID,93.4884,VALID,-0.0679233,VALID,18.8751,VALID,132,VALID,1.03084,
2001-05-29, 00:28:01,VALID,916.972,VALID,0,VALID,93.379,VALID,-0.0169808,VALID,18.9148,VALID,132,VALID,0.539063,
2001-05-29, 00:29:00,VALID,916.973,VALID,0,VALID,93.2913,VALID,-0.0339617,VALID,18.9335,VALID,119,VALID,0.766653,
2001-05-29, 00:30:01,VALID,916.99,VALID,0,VALID,93.1857,VALID,-0.0169808,VALID,18.9499,VALID,131,VALID,0.321715,
2001-05-29, 00:31:00,VALID,917.004,VALID,0,VALID,93.1921,VALID,0,VALID,18.9623,VALID,155,VALID,0.688734,
2001-05-29, 00:32:01,VALID,917.004,VALID,0,VALID,93.2785,VALID,-0.0339617,VALID,18.9755,VALID,158,VALID,0.810296,
2001-05-29, 00:33:00,VALID,917.006,VALID,0,VALID,93.4337,VALID,-0.0509425,VALID,18.9857,VALID,172,VALID,0.686883,
2001-05-29, 00:34:01,VALID,916.996,VALID,0,VALID,93.6232,VALID,-0.0679233,VALID,18.9785,VALID,179,VALID,0.281651,
2001-05-29, 00:35:00,VALID,916.99,VALID,0,VALID,93.8025,VALID,-0.0169808,VALID,18.9755,VALID,163,VALID,0.356291,
2001-05-29, 00:36:00,VALID,916.973,VALID,0,VALID,93.9194,VALID,-0.0849042,VALID,18.9688,VALID,165,VALID,0.157652,
2001-05-29, 00:37:00,VALID,916.947,VALID,0,VALID,94.142,VALID,-0.0339617,VALID,18.9529,VALID,136,VALID,0.285979,
2001-05-29, 00:38:01,VALID,916.917,VALID,0,VALID,94.4548,VALID,-0.0169808,VALID,18.9233,VALID,123,VALID,0.422476,
2001-05-29, 00:39:00,VALID,916.891,VALID,0,VALID,94.9176,VALID,0,VALID,18.8915,VALID,118,VALID,1.03269,
2001-05-29, 00:40:01,VALID,916.866,VALID,0,VALID,95.439,VALID,0,VALID,18.8362,VALID,123,VALID,1.03065,
2001-05-29, 00:41:00,VALID,916.815,VALID,0,VALID,95.7671,VALID,0,VALID,18.788,VALID,111,VALID,0.83861,
2001-05-29, 00:42:01,VALID,916.796,VALID,0,VALID,96.0011,VALID,-0.0169808,VALID,18.7268,VALID,98,VALID,0.921074,
2001-05-29, 00:43:00,VALID,916.756,VALID,0,VALID,96.2541,VALID,-0.0169808,VALID,18.6881,VALID,102,VALID,1.17188,
2001-05-29, 00:44:01,VALID,916.734,VALID,0,VALID,96.4092,VALID,-0.0169808,VALID,18.6625,VALID,111,VALID,1.16366,
2001-05-29, 00:45:00,VALID,916.692,VALID,0,VALID,96.4156,VALID,0,VALID,18.6332,VALID,114,VALID,1.11225,
2001-05-29, 00:46:01,VALID,916.671,VALID,0,VALID,96.3419,VALID,-0.0169808,VALID,18.6396,VALID,126,VALID,0.936498,
2001-05-29, 00:47:00,VALID,916.647,VALID,0,VALID,96.1689,VALID,0,VALID,18.6297,VALID,126,VALID,1.04112,
2001-05-29, 00:48:00,VALID,916.628,VALID,0,VALID,95.9515,VALID,0,VALID,18.6493,VALID,119,VALID,1.51102,
2001-05-29, 00:49:00,VALID,916.61,VALID,0,VALID,95.6552,VALID,0,VALID,18.6749,VALID,112,VALID,1.53207,
2001-05-29, 00:50:01,VALID,916.583,VALID,0,VALID,95.4403,VALID,0,VALID,18.7109,VALID,113,VALID,1.49299,
2001-05-29, 00:51:00,VALID,916.575,VALID,0,VALID,95.3068,VALID,0,VALID,18.74,VALID,139,VALID,0.851768,
2001-05-29, 00:52:01,VALID,916.568,VALID,0,VALID,95.1643,VALID,0,VALID,18.7591,VALID,122,VALID,0.890625,
2001-05-29, 00:53:00,VALID,916.55,VALID,0,VALID,94.9672,VALID,-0.0169808,VALID,18.769,VALID,120,VALID,1.29009,
2001-05-29, 00:54:01,VALID,916.55,VALID,0,VALID,94.9482,VALID,0,VALID,18.7919,VALID,120,VALID,0.667067,
2001-05-29, 00:55:00,VALID,916.548,VALID,0,VALID,94.8452,VALID,0,VALID,18.7981,VALID,107,VALID,1.18257,
2001-05-29, 00:56:01,VALID,916.543,VALID,0,VALID,94.8744,VALID,-0.0339617,VALID,18.8083,VALID,123,VALID,0.768029,
2001-05-29, 00:57:00,VALID,916.529,VALID,0,VALID,95.0054,VALID,-0.0339617,VALID,18.8011,VALID,133,VALID,1.26501,
2001-05-29, 00:58:01,VALID,916.514,VALID,0,VALID,95.0461,VALID,-0.0679233,VALID,18.7884,VALID,142,VALID,1.51462,
2001-05-29, 00:59:00,VALID,916.488,VALID,0,VALID,95.1885,VALID,-0.0339617,VALID,18.782,VALID,142,VALID,1.52632,
2001-05-29, 01:00:00,VALID,916.486,VALID,0,VALID,95.2228,VALID,-0.0339617,VALID,18.7794,VALID,144,VALID,1.60096,
2001-05-29, 01:01:00,VALID,916.479,VALID,0,VALID,95.2648,VALID,-0.0339617,VALID,18.7859,VALID,151,VALID,1.80798,
2001-05-29, 01:02:01,VALID,916.479,VALID,0,VALID,95.4784,VALID,-0.0339617,VALID,18.7854,VALID,146,VALID,1.77464,
2001-05-29, 01:03:00,VALID,916.484,VALID,0,VALID,95.6234,VALID,-0.0339617,VALID,18.779,VALID,154,VALID,1.25946,
2001-05-29, 01:04:01,VALID,916.469,VALID,0,VALID,95.7963,VALID,-0.0169808,VALID,18.7524,VALID,145,VALID,1.4405,
2001-05-29, 01:05:00,VALID,916.459,VALID,0,VALID,95.837,VALID,0,VALID,18.7331,VALID,144,VALID,1.62068,
2001-05-29, 01:06:01,VALID,916.448,VALID,0,VALID,95.7544,VALID,-0.0339617,VALID,18.7335,VALID,140,VALID,1.82312,
2001-05-29, 01:07:00,VALID,916.429,VALID,0,VALID,95.7709,VALID,0,VALID,18.7305,VALID,150,VALID,1.18318,
2001-05-29, 01:08:01,VALID,916.433,VALID,0,VALID,95.6196,VALID,0,VALID,18.7372,VALID,152,VALID,1.41266,
2001-05-29, 01:09:00,VALID,916.427,VALID,0,VALID,95.6272,VALID,-0.0169808,VALID,18.7301,VALID,168,VALID,0.993627,
2001-05-29, 01:10:01,VALID,916.436,VALID,0,VALID,95.7315,VALID,-0.0339617,VALID,18.743,VALID,160,VALID,1.07272,
2001-05-29, 01:11:00,VALID,916.409,VALID,0,VALID,95.7238,VALID,-0.0679233,VALID,18.7566,VALID,161,VALID,1.1544,
2001-05-29, 01:12:00,VALID,916.402,VALID,0,VALID,95.701,VALID,-0.0679233,VALID,18.7363,VALID,159,VALID,0.915465,
2001-05-29, 01:13:00,VALID,916.389,VALID,0,VALID,95.6603,VALID,-0.0679233,VALID,18.7268,VALID,160,VALID,0.986842,
2001-05-29, 01:14:01,VALID,916.364,VALID,0,VALID,95.4873,VALID,-0.0849042,VALID,18.7469,VALID,152,VALID,1.248,
2001-05-29, 01:15:00,VALID,916.346,VALID,0,VALID,95.3894,VALID,-0.101885,VALID,18.7402,VALID,154,VALID,1.33162,
2001-05-29, 01:16:01,VALID,916.347,VALID,0,VALID,95.275,VALID,-0.0849042,VALID,18.7534,VALID,152,VALID,1.64363,
2001-05-29, 01:17:00,VALID,916.376,VALID,0,VALID,95.1059,VALID,-0.0849042,VALID,18.7564,VALID,153,VALID,1.46217,
2001-05-29, 01:18:01,VALID,916.373,VALID,0,VALID,94.9978,VALID,-0.0509425,VALID,18.7693,VALID,154,VALID,1.82632,
2001-05-29, 01:19:00,VALID,916.374,VALID,0,VALID,94.8325,VALID,-0.0849042,VALID,18.7693,VALID,155,VALID,0.885485,
2001-05-29, 01:20:01,VALID,916.365,VALID,0,VALID,94.7129,VALID,-0.0339617,VALID,18.7757,VALID,153,VALID,1.61619,
2001-05-29, 01:21:00,VALID,916.361,VALID,0,VALID,94.189,VALID,-0.0849042,VALID,18.7956,VALID,152,VALID,1.76994,
2001-05-29, 01:22:01,VALID,916.351,VALID,0,VALID,94.0555,VALID,-0.0509425,VALID,18.7884,VALID,155,VALID,1.23978,
2001-05-29, 01:23:00,VALID,916.354,VALID,0,VALID,93.8164,VALID,-0.0679233,VALID,18.8145,VALID,154,VALID,1.6067,
2001-05-29, 01:24:00,VALID,916.361,VALID,0,VALID,93.5787,VALID,-0.0509425,VALID,18.8205,VALID,159,VALID,1.61478,
2001-05-29, 01:25:00,VALID,916.362,VALID,0,VALID,93.3231,VALID,-0.0339617,VALID,18.8433,VALID,148,VALID,1.66201,
2001-05-29, 01:26:01,VALID,916.38,VALID,0,VALID,93.0713,VALID,-0.0509425,VALID,18.8627,VALID,146,VALID,1.39864,
2001-05-29, 01:27:00,VALID,916.371,VALID,0,VALID,93.0102,VALID,-0.0339617,VALID,18.8784,VALID,121,VALID,1.32956,
2001-05-29, 01:28:01,VALID,916.373,VALID,0,VALID,92.3363,VALID,-0.0509425,VALID,18.8952,VALID,141,VALID,1.34956,
2001-05-29, 01:29:00,VALID,916.362,VALID,0,VALID,92.1659,VALID,-0.0509425,VALID,18.8982,VALID,120,VALID,0.996711,
2001-05-29, 01:30:01,VALID,916.353,VALID,0,VALID,91.9319,VALID,0,VALID,18.9104,VALID,106,VALID,0.76903,
2001-05-29, 01:31:00,VALID,916.341,VALID,0,VALID,91.6509,VALID,-0.0679233,VALID,18.9208,VALID,129,VALID,0.994038,
2001-05-29, 01:32:01,VALID,916.352,VALID,0,VALID,91.5085,VALID,-0.0679233,VALID,18.9404,VALID,141,VALID,0.613782,
2001-05-29, 01:33:00,VALID,916.339,VALID,0,VALID,91.5263,VALID,-0.0339617,VALID,18.9561,VALID,161,VALID,1.21953,
2001-05-29, 01:34:01,VALID,916.334,VALID,0,VALID,91.6356,VALID,-0.0339617,VALID,18.9725,VALID,159,VALID,1.16246,
2001-05-29, 01:35:00,VALID,916.329,VALID,0,VALID,91.9001,VALID,-0.0679233,VALID,18.9757,VALID,152,VALID,1.58676,
2001-05-29, 01:36:00,VALID,916.305,VALID,0,VALID,92.2778,VALID,-0.0509425,VALID,18.9824,VALID,153,VALID,1.4345,
2001-05-29, 01:37:00,VALID,916.298,VALID,0,VALID,92.8017,VALID,-0.0339617,VALID,18.9723,VALID,156,VALID,1.75596,
2001-05-29, 01:38:01,VALID,916.288,VALID,0,VALID,93.1285,VALID,-0.0339617,VALID,18.9268,VALID,150,VALID,2.0635,
2001-05-29, 01:39:00,VALID,916.28,VALID,0,VALID,93.3078,VALID,-0.0679233,VALID,18.9012,VALID,166,VALID,1.84683,
2001-05-29, 01:40:01,VALID,916.263,VALID,0,VALID,93.6499,VALID,-0.0509425,VALID,18.8821,VALID,151,VALID,1.54667,
2001-05-29, 01:41:00,VALID,916.265,VALID,0,VALID,93.702,VALID,0,VALID,18.8493,VALID,146,VALID,2.07463,
2001-05-29, 01:42:01,VALID,916.246,VALID,0,VALID,93.6054,VALID,-0.0339617,VALID,18.8436,VALID,148,VALID,2.18429,
2001-05-29, 01:43:00,VALID,916.239,VALID,0,VALID,93.2366,VALID,-0.0339617,VALID,18.853,VALID,150,VALID,1.77426,
2001-05-29, 01:44:01,VALID,916.227,VALID,0,VALID,93.2061,VALID,-0.0339617,VALID,18.8622,VALID,156,VALID,2.06671,
2001-05-29, 01:45:00,VALID,916.209,VALID,0,VALID,92.7343,VALID,-0.0169808,VALID,18.8855,VALID,155,VALID,2.64885,
2001-05-29, 01:46:01,VALID,916.19,VALID,0,VALID,92.5588,VALID,-0.0169808,VALID,18.9109,VALID,151,VALID,1.88882,
2001-05-29, 01:47:00,VALID,916.173,VALID,0,VALID,92.1888,VALID,-0.0509425,VALID,18.934,VALID,149,VALID,1.73664,
2001-05-29, 01:48:00,VALID,916.145,VALID,0,VALID,91.6929,VALID,-0.0339617,VALID,18.9698,VALID,155,VALID,1.92528,
2001-05-29, 01:49:00,VALID,916.15,VALID,0,VALID,91.4029,VALID,-0.0339617,VALID,18.9946,VALID,160,VALID,2.08553,
2001-05-29, 01:50:01,VALID,916.144,VALID,0,VALID,91.7475,VALID,-0.0339617,VALID,19.0431,VALID,170,VALID,1.05148,
2001-05-29, 01:51:00,VALID,916.151,VALID,0,VALID,91.7641,VALID,-0.0339617,VALID,19.0597,VALID,183,VALID,1.30428,
2001-05-29, 01:52:01,VALID,916.145,VALID,0,VALID,91.6496,VALID,-0.0339617,VALID,19.0465,VALID,153,VALID,0.44371,
2001-05-29, 01:53:00,VALID,916.148,VALID,0,VALID,91.8798,VALID,-0.0339617,VALID,19.0498,VALID,194,VALID,0.482525,
2001-05-29, 01:54:01,VALID,916.141,VALID,0,VALID,91.8772,VALID,-0.0679233,VALID,19.0369,VALID,174,VALID,0.536659,
2001-05-29, 01:55:00,VALID,916.127,VALID,0,VALID,91.9993,VALID,-0.0339617,VALID,19.0239,VALID,169,VALID,0.841694,
2001-05-29, 01:56:01,VALID,916.099,VALID,0,VALID,91.9268,VALID,-0.0679233,VALID,19.0147,VALID,167,VALID,0.595152,
2001-05-29, 01:57:01,VALID,916.066,VALID,0,VALID,92.0146,VALID,0,VALID,19.0078,VALID,153,VALID,1.24054,
2001-05-29, 01:58:01,VALID,916.051,VALID,0,VALID,92.1761,VALID,0,VALID,18.9849,VALID,163,VALID,1.30148,
2001-05-29, 01:59:01,VALID,916.045,VALID,0,VALID,92.2816,VALID,0,VALID,18.9621,VALID,154,VALID,0.995477,
2001-05-29, 02:00:01,VALID,916.03,VALID,0,VALID,92.6987,VALID,-0.0169808,VALID,18.9492,VALID,165,VALID,0.874399,
2001-05-29, 02:01:00,VALID,916.029,VALID,0,VALID,93.0191,VALID,-0.0509425,VALID,18.9271,VALID,158,VALID,1.17887,
2001-05-29, 02:02:01,VALID,916.028,VALID,0,VALID,92.5385,VALID,-0.0679233,VALID,18.8851,VALID,153,VALID,1.30909,
2001-05-29, 02:03:00,VALID,916.029,VALID,0,VALID,92.3312,VALID,0,VALID,18.8724,VALID,158,VALID,1.58882,
2001-05-29, 02:04:01,VALID,916.044,VALID,0,VALID,91.965,VALID,-0.0849042,VALID,18.8722,VALID,133,VALID,1.44752,
2001-05-29, 02:05:01,VALID,916.043,VALID,0,VALID,91.8277,VALID,-0.0849042,VALID,18.8982,VALID,145,VALID,1.30304,
2001-05-29, 02:06:01,VALID,916.034,VALID,0,VALID,91.6102,VALID,-0.0509425,VALID,18.9114,VALID,139,VALID,1.27624,
2001-05-29, 02:07:01,VALID,916.015,VALID,0,VALID,91.2707,VALID,-0.0849042,VALID,18.928,VALID,141,VALID,1.50247,
2001-05-29, 02:08:01,VALID,915.993,VALID,0,VALID,90.5052,VALID,-0.0679233,VALID,18.9268,VALID,127,VALID,1.28566,
2001-05-29, 02:09:01,VALID,915.999,VALID,0,VALID,89.8261,VALID,-0.0679233,VALID,18.9924,VALID,147,VALID,1.47348,
2001-05-29, 02:10:01,VALID,916.009,VALID,0,VALID,89.2768,VALID,0.0169808,VALID,19.0431,VALID,147,VALID,1.75561,
2001-05-29, 02:11:01,VALID,916.037,VALID,0,VALID,89.4052,VALID,0.0679233,VALID,19.1035,VALID,154,VALID,1.62253,
2001-05-29, 02:12:01,VALID,916.047,VALID,0,VALID,89.6443,VALID,0.0509425,VALID,19.1484,VALID,174,VALID,0.986979,
2001-05-29, 02:13:01,VALID,916.086,VALID,0,VALID,89.9609,VALID,0.0679233,VALID,19.1579,VALID,165,VALID,1.32011,
2001-05-29, 02:14:01,VALID,916.107,VALID,0,VALID,90.1631,VALID,0.0679233,VALID,19.1519,VALID,169,VALID,1.28566,
2001-05-29, 02:15:01,VALID,916.111,VALID,0,VALID,90.5548,VALID,0.0679233,VALID,19.1254,VALID,162,VALID,1.24938,
2001-05-29, 02:16:01,VALID,916.113,VALID,0,VALID,90.8193,VALID,0.0849042,VALID,19.0801,VALID,162,VALID,1.15425,
2001-05-29, 02:17:01,VALID,916.118,VALID,0,VALID,90.6997,VALID,0.0339617,VALID,19.0483,VALID,166,VALID,1.50267,
2001-05-29, 02:18:01,VALID,916.149,VALID,0,VALID,90.7303,VALID,0.0679233,VALID,19.0354,VALID,169,VALID,0.947917,
2001-05-29, 02:19:01,VALID,916.164,VALID,0,VALID,90.7061,VALID,0.101885,VALID,19.0382,VALID,159,VALID,1.14556,
2001-05-29, 02:20:01,VALID,916.167,VALID,0,VALID,90.7061,VALID,0.0679233,VALID,19.0384,VALID,185,VALID,0.753806,
2001-05-29, 02:21:01,VALID,916.176,VALID,0,VALID,90.6044,VALID,0.101885,VALID,19.0349,VALID,168,VALID,0.69963,
2001-05-29, 02:22:01,VALID,916.181,VALID,0,VALID,91.0494,VALID,0.101885,VALID,19.0349,VALID,184,VALID,0.098758,
2001-05-29, 02:23:01,VALID,916.197,VALID,0,VALID,91.3279,VALID,0.0679233,VALID,19.022,VALID,235,VALID,0.24486,
2001-05-29, 02:24:01,VALID,916.219,VALID,0,VALID,91.4246,VALID,0.0849042,VALID,18.9639,VALID,257,VALID,0.644231,
2001-05-29, 02:25:01,VALID,916.246,VALID,0,VALID,91.8556,VALID,-0.0169808,VALID,18.9199,VALID,308,VALID,0.809827,
2001-05-29, 02:26:00,VALID,916.259,VALID,0,VALID,92.5219,VALID,-0.0339617,VALID,18.8754,VALID,340,VALID,0.214944,
2001-05-29, 02:27:00,VALID,916.251,VALID,0,VALID,92.8399,VALID,-0.0169808,VALID,18.8267,VALID,25,VALID,0.812294,
2001-05-29, 02:28:00,VALID,916.243,VALID,0,VALID,92.9518,VALID,-0.0509425,VALID,18.7718,VALID,16,VALID,0.859175,
2001-05-29, 02:29:00,VALID,916.233,VALID,0,VALID,93.0052,VALID,-0.0169808,VALID,18.7301,VALID,30,VALID,0.77426,
2001-05-29, 02:30:00,VALID,916.234,VALID,0,VALID,92.9428,VALID,-0.0509425,VALID,18.6719,VALID,48,VALID,0.447316,
2001-05-29, 02:31:00,VALID,916.258,VALID,0,VALID,93.2468,VALID,-0.0339617,VALID,18.6461,VALID,64,VALID,0.130757,
2001-05-29, 02:32:00,VALID,916.264,VALID,0,VALID,93.1934,VALID,0,VALID,18.6074,VALID,75,VALID,0.236378,
2001-05-29, 02:33:00,VALID,916.246,VALID,0,VALID,92.8907,VALID,-0.0509425,VALID,18.5845,VALID,71,VALID,0.617599,
2001-05-29, 02:34:00,VALID,916.216,VALID,0,VALID,93.028,VALID,-0.0679233,VALID,18.5845,VALID,73,VALID,0.566707,
2001-05-29, 02:35:00,VALID,916.198,VALID,0,VALID,93.1666,VALID,-0.0849042,VALID,18.5882,VALID,70,VALID,0.73273,
2001-05-29, 02:36:00,VALID,916.19,VALID,0,VALID,93.1107,VALID,-0.0509425,VALID,18.5624,VALID,80,VALID,0.903846,
2001-05-29, 02:37:00,VALID,916.167,VALID,0,VALID,93.1488,VALID,-0.0339617,VALID,18.5264,VALID,73,VALID,1.27426,
2001-05-29, 02:38:00,VALID,916.124,VALID,0,VALID,93.6944,VALID,-0.0509425,VALID,18.5271,VALID,90,VALID,0.951723,
2001-05-29, 02:39:00,VALID,916.113,VALID,0,VALID,93.9576,VALID,0,VALID,18.5013,VALID,85,VALID,1.14967,
2001-05-29, 02:40:00,VALID,916.09,VALID,0,VALID,94.1649,VALID,-0.0509425,VALID,18.4489,VALID,84,VALID,1.04808,
2001-05-29, 02:41:00,VALID,916.079,VALID,0,VALID,94.2971,VALID,-0.0169808,VALID,18.4035,VALID,91,VALID,1.06086,
2001-05-29, 02:42:00,VALID,916.066,VALID,0,VALID,94.2068,VALID,-0.0509425,VALID,18.4108,VALID,114,VALID,1.3151,
2001-05-29, 02:43:00,VALID,916.052,VALID,0,VALID,93.7681,VALID,-0.0509425,VALID,18.4531,VALID,126,VALID,1.10896,
2001-05-29, 02:44:00,VALID,916.032,VALID,0,VALID,93.4133,VALID,-0.0169808,VALID,18.5077,VALID,105,VALID,1.07131,
2001-05-29, 02:45:00,VALID,916.006,VALID,0,VALID,93.0547,VALID,-0.0339617,VALID,18.5755,VALID,101,VALID,1.36308,
2001-05-29, 02:46:00,VALID,915.971,VALID,0,VALID,92.8945,VALID,-0.0509425,VALID,18.6173,VALID,98,VALID,1.11318,
2001-05-29, 02:47:00,VALID,915.97,VALID,0,VALID,92.8208,VALID,-0.0339617,VALID,18.6565,VALID,85,VALID,1.28084,
2001-05-29, 02:48:00,VALID,915.963,VALID,0,VALID,92.7826,VALID,-0.0169808,VALID,18.6786,VALID,77,VALID,1.124,
2001-05-29, 02:49:00,VALID,915.946,VALID,0,VALID,92.8678,VALID,-0.0339617,VALID,18.6851,VALID,79,VALID,0.859375,
2001-05-29, 02:50:00,VALID,915.929,VALID,0,VALID,92.9034,VALID,-0.101885,VALID,18.6719,VALID,101,VALID,1.13862,
2001-05-29, 02:51:00,VALID,915.923,VALID,0,VALID,92.8983,VALID,-0.0339617,VALID,18.6821,VALID,83,VALID,1.20456,
2001-05-29, 02:52:00,VALID,915.901,VALID,0,VALID,93.0395,VALID,-0.101885,VALID,18.6853,VALID,90,VALID,0.932492,
2001-05-29, 02:53:00,VALID,915.893,VALID,0,VALID,93.0382,VALID,-0.0509425,VALID,18.6689,VALID,109,VALID,1.10403,
2001-05-29, 02:54:00,VALID,915.884,VALID,0,VALID,93.126,VALID,-0.0339617,VALID,18.6622,VALID,91,VALID,0.784655,
2001-05-29, 02:55:00,VALID,915.879,VALID,0,VALID,93.2493,VALID,-0.0679233,VALID,18.6729,VALID,79,VALID,0.85403,
2001-05-29, 02:56:00,VALID,915.873,VALID,0,VALID,93.3701,VALID,-0.118866,VALID,18.6602,VALID,66,VALID,1.17007,
2001-05-29, 02:57:00,VALID,915.838,VALID,0,VALID,93.3103,VALID,-0.101885,VALID,18.6477,VALID,77,VALID,1.20456,
2001-05-29, 02:58:00,VALID,915.827,VALID,0,VALID,93.2048,VALID,-0.0849042,VALID,18.6344,VALID,103,VALID,1.17588,
2001-05-29, 02:59:00,VALID,915.794,VALID,0,VALID,93.0662,VALID,-0.101885,VALID,18.6344,VALID,82,VALID,1.13117,
2001-05-29, 03:00:00,VALID,915.784,VALID,0,VALID,93.028,VALID,-0.0849042,VALID,18.6374,VALID,110,VALID,1.24099,
2001-05-29, 03:01:00,VALID,915.768,VALID,0,VALID,92.8818,VALID,-0.101885,VALID,18.644,VALID,114,VALID,0.925164,
2001-05-29, 03:02:00,VALID,915.749,VALID,0,VALID,92.8322,VALID,-0.101885,VALID,18.6411,VALID,103,VALID,1.14243,
2001-05-29, 03:03:00,VALID,915.727,VALID,0,VALID,92.6339,VALID,-0.118866,VALID,18.6212,VALID,113,VALID,1.4669,
2001-05-29, 03:04:00,VALID,915.709,VALID,0,VALID,92.4355,VALID,-0.118866,VALID,18.6311,VALID,111,VALID,1.16967,
2001-05-29, 03:05:00,VALID,915.701,VALID,0,VALID,92.377,VALID,-0.101885,VALID,18.6401,VALID,123,VALID,0.900493,
2001-05-29, 03:06:00,VALID,915.697,VALID,0,VALID,92.1189,VALID,-0.118866,VALID,18.6607,VALID,105,VALID,0.710537,
2001-05-29, 03:07:00,VALID,915.693,VALID,0,VALID,91.8798,VALID,-0.101885,VALID,18.6733,VALID,140,VALID,1.05243,
2001-05-29, 03:08:00,VALID,915.691,VALID,0,VALID,91.8594,VALID,-0.0849042,VALID,18.6955,VALID,126,VALID,0.933494,
2001-05-29, 03:09:00,VALID,915.695,VALID,0,VALID,91.5797,VALID,-0.101885,VALID,18.729,VALID,120,VALID,1.24733,
2001-05-29, 03:10:00,VALID,915.674,VALID,0,VALID,91.5568,VALID,-0.0339617,VALID,18.7464,VALID,135,VALID,0.814303,
2001-05-29, 03:11:00,VALID,915.673,VALID,0,VALID,91.5479,VALID,-0.0169808,VALID,18.7658,VALID,130,VALID,0.945107,
2001-05-29, 03:12:00,VALID,915.659,VALID,0,VALID,91.6395,VALID,-0.0169808,VALID,18.7755,VALID,157,VALID,0.95613,
2001-05-29, 03:13:00,VALID,915.64,VALID,0,VALID,91.7336,VALID,-0.0339617,VALID,18.7755,VALID,166,VALID,0.630345,
2001-05-29, 03:14:00,VALID,915.638,VALID,0,VALID,91.7399,VALID,0,VALID,18.785,VALID,174,VALID,0.526242,
2001-05-29, 03:15:00,VALID,915.638,VALID,0,VALID,91.7081,VALID,0,VALID,18.7912,VALID,166,VALID,0.635691,
2001-05-29, 03:16:00,VALID,915.641,VALID,0,VALID,91.8849,VALID,0,VALID,18.818,VALID,192,VALID,0.272636,
2001-05-29, 03:17:00,VALID,915.651,VALID,0,VALID,91.9624,VALID,0.0169808,VALID,18.8108,VALID,203,VALID,0.269326,
2001-05-29, 03:18:00,VALID,915.666,VALID,0,VALID,92.1036,VALID,-0.0169808,VALID,18.8078,VALID,217,VALID,0.239383,
2001-05-29, 03:19:00,VALID,915.654,VALID,0,VALID,92.1951,VALID,-0.0339617,VALID,18.7686,VALID,175,VALID,0.257607,
2001-05-29, 03:20:00,VALID,915.625,VALID,0,VALID,92.4037,VALID,0,VALID,18.7621,VALID,169,VALID,0.0434696,
2001-05-29, 03:21:00,VALID,915.604,VALID,0,VALID,92.2727,VALID,0,VALID,18.7492,VALID,109,VALID,0.472656,
2001-05-29, 03:22:00,VALID,915.588,VALID,0,VALID,92.3134,VALID,0,VALID,18.7397,VALID,74,VALID,0.313301,
2001-05-29, 03:23:00,VALID,915.581,VALID,0,VALID,92.6516,VALID,0.0169808,VALID,18.7464,VALID,66,VALID,0.312911,
2001-05-29, 03:24:00,VALID,915.572,VALID,0,VALID,92.1036,VALID,-0.0169808,VALID,18.7077,VALID,74,VALID,0.777244,
2001-05-29, 03:25:00,VALID,915.555,VALID,0,VALID,91.9446,VALID,-0.0169808,VALID,18.7042,VALID,80,VALID,0.664268,
2001-05-29, 03:26:00,VALID,915.534,VALID,0,VALID,91.3381,VALID,-0.0169808,VALID,18.7008,VALID,95,VALID,0.880008,
2001-05-29, 03:27:00,VALID,915.515,VALID,0,VALID,91.1537,VALID,0,VALID,18.7397,VALID,96,VALID,0.900082,
2001-05-29, 03:28:00,VALID,915.491,VALID,0,VALID,90.776,VALID,-0.0169808,VALID,18.7949,VALID,96,VALID,1.01643,
2001-05-29, 03:29:00,VALID,915.481,VALID,0,VALID,90.7226,VALID,0,VALID,18.8302,VALID,90,VALID,0.983141,
2001-05-29, 03:30:00,VALID,915.47,VALID,0,VALID,90.6031,VALID,0,VALID,18.8366,VALID,101,VALID,0.990184,
2001-05-29, 03:31:00,VALID,915.46,VALID,0,VALID,90.1224,VALID,0,VALID,18.8366,VALID,99,VALID,1.29626,